This is the latest recevied weather packets stored in our database for station/object s59zo-6. If no packets are shown the sender has not sent any weather packets the latest 10 day(s).
| Time | Temp. | Humidity | Pressure | Rain* | Wind** | Luminosity | Snow |
|---|---|---|---|---|---|---|---|
| 1788683431 | 23.33° C | 51% | 1025.3 hPa | 0 mm | - | - | - |
| 1788683104 | 23.33° C | 52% | 1025.4 hPa | 0 mm | - | - | - |
| 1788682804 | 23.33° C | 51% | 1025.4 hPa | 0 mm | - | - | - |
| 1788682504 | 22.78° C | 53% | 1025.4 hPa | 0 mm | - | - | - |
| 1788682204 | 22.78° C | 53% | 1025.4 hPa | 0 mm | - | - | - |
| 1788681904 | 22.22° C | 59% | 1025.3 hPa | 0 mm | - | - | - |
| 1788681640 | 22.22° C | 59% | 1025.5 hPa | 0 mm | - | - | - |
| 1788681304 | 22.22° C | 60% | 1025.3 hPa | 0 mm | - | - | - |
| 1788681004 | 21.67° C | 62% | 1025.3 hPa | 0 mm | - | - | - |
| 1788680704 | 21.67° C | 63% | 1025.1 hPa | 0 mm | - | - | - |
| 1788680404 | 21.11° C | 66% | 1025.3 hPa | 0 mm | - | - | - |
| 1788680103 | 21.11° C | 67% | 1025.2 hPa | 0 mm | - | - | - |
| 1788679804 | 20.56° C | 69% | 1025.1 hPa | 0 mm | - | - | - |
| 1788679504 | 20.56° C | 70% | 1025.2 hPa | 0 mm | - | - | - |
| 1788679204 | 20° C | 71% | 1025.2 hPa | 0 mm | - | - | - |
| 1788678904 | 20° C | 71% | 1025.2 hPa | 0 mm | - | - | - |
| 1788678604 | 19.44° C | 72% | 1025 hPa | 0 mm | - | - | - |
| 1788678304 | 19.44° C | 73% | 1025.2 hPa | 0 mm | - | - | - |
| 1788678004 | 18.89° C | 74% | 1025.2 hPa | 0 mm | - | - | - |
| 1788677705 | 18.89° C | 74% | 1025.2 hPa | 0 mm | - | - | - |
| 1788677404 | 18.33° C | 75% | 1024.9 hPa | 0 mm | - | - | - |
| 1788677104 | 18.33° C | 75% | 1025.2 hPa | 0 mm | - | - | - |
| 1788676804 | 18.33° C | 76% | 1025.3 hPa | 0 mm | - | - | - |
| 1788676504 | 17.78° C | 77% | 1025.2 hPa | 0 mm | - | - | - |
| 1788676204 | 17.78° C | 78% | 1025.3 hPa | 0 mm | - | - | - |
* Rain latest hour (hover to see other rain measurements)
** Current wind speed in m/s (hover to see current wind gust speed)